Simultaneous Nadir Overpasses (SNOs) Predictions

Prediction of SNOs between GOES-14 and AQUA Satellite Orbit:

Table of predicted SNOs for the next 14.0 days since TLE Epoch: 7/30/2022
Index Date Time (GOES-14) GOES-14 Lat,Lon AQUA Lat,Lon Distance(km) Time Diff (sec)
1 07/30/2022 08:39:06 -0.38,-104.44 -0.36,-104.62 20.19 80
2 08/01/2022 08:23:47 -0.37,-104.43 -0.97,-101.54 328.80 80
3 08/01/2022 20:45:06 0.39,-104.70 -0.04,-106.72 229.53 80
4 08/03/2022 20:35:08 0.39,-104.69 0.64,-103.65 119.66 80
5 08/04/2022 08:56:15 -0.41,-104.44 0.53,-108.75 491.11 80
6 08/05/2022 20:22:29 0.39,-104.69 1.26,-100.56 468.61 80
7 08/06/2022 08:43:37 -0.42,-104.43 -0.15,-105.68 142.72 80
8 08/08/2022 08:28:18 -0.42,-104.41 -0.78,-102.60 205.09 80
9 08/08/2022 20:49:37 0.44,-104.65 -0.21,-107.78 356.26 80
10 08/10/2022 20:36:58 0.44,-104.63 0.43,-104.71 8.02 80
11 08/12/2022 20:26:59 0.44,-104.62 1.08,-101.63 340.57 80
